Weather History for Sallisaw, OK

Change the Weather History Date:

Thursday, February 7, 2013

  Actual Average Record
Temperature  
Mean Temperature 54 °F -  
Max Temperature 60 °F 49 °F 71 °F (1950)
Min Temperature 48 °F 26 °F 0 °F (1985)
Degree Days  
Heating Degree Days 11    
Growing Degree Days 4 (Base 50)    
Moisture  
Dew Point 48 °F    
Average Humidity 80    
Maximum Humidity 94    
Minimum Humidity 72    
Precipitation  
Precipitation 0.36 in - - ()
Sea Level Pressure  
Sea Level Pressure 29.94 in    
Wind  
Wind Speed 7 mph (ENE)    
Max Wind Speed 14 mph    
Max Gust Speed 18 mph    
Visibility 9 miles    
Events Rain , Thunderstorm    
Averages and records for this station are not official NWS values.
T = Trace of Precipitation, MM = Missing Value Source: NWS Daily Summary

Daily Weather History Graph

Daily Weather History Graph

Search for Another Location

Airport:

Trip Planner

Search our weather history database for the weather conditions in past years. The results will help you decide how hot, cold, wet, or windy it might be!

Date:

Astronomy

Feb. 07, 2013 Rise Set
Actual Time 7:13 AM CST 5:53 PM CST
Civil Twilight 6:47 AM CST 6:20 PM CST
Nautical Twilight 6:16 AM CST 6:50 PM CST
Astronomical Twilight 5:47 AM CST 7:20 PM CST
Moon 4:50 AM CST (2/7) 3:21 PM CST (2/7)
Length of Visible Light 11h 33m
Length of Day
10h 40m
Waning Crescent, 9% of the Moon is Illuminated
Feb 7
Waning Crescent
Feb 10
New
Feb 17
First Quarter
Feb 25
Full
Mar 4
Last Quarter

Hourly Weather History & Observations

Time (CST) Temp. Dew Point Humidity Pressure Visibility Wind Dir Wind Speed Gust Speed Precip Events Conditions
12:15 AM 51.8 °F 44.6 °F 76% 29.97 in 10.0 mi East 9.2 mph - N/A   Overcast
12:35 AM 51.8 °F 44.6 °F 76% 29.97 in 10.0 mi East 9.2 mph - N/A   Overcast
12:55 AM 51.8 °F 44.6 °F 76% 29.97 in 10.0 mi East 9.2 mph - N/A   Overcast
1:15 AM 51.8 °F 44.6 °F 76% 29.96 in 10.0 mi East 9.2 mph - N/A   Overcast
1:35 AM 51.8 °F 44.6 °F 76% 29.95 in 10.0 mi East 10.4 mph - N/A   Overcast
1:55 AM 51.8 °F 44.6 °F 76% 29.95 in 10.0 mi East 10.4 mph - N/A   Overcast
2:15 AM 51.8 °F 44.6 °F 76% 29.95 in 10.0 mi East 9.2 mph - N/A   Overcast
2:35 AM 51.8 °F 44.6 °F 76% 29.95 in 10.0 mi East 9.2 mph - N/A   Overcast
2:55 AM 51.8 °F 44.6 °F 76% 29.95 in 10.0 mi ESE 6.9 mph - N/A   Overcast
3:15 AM 51.8 °F 44.6 °F 76% 29.94 in 10.0 mi ESE 6.9 mph - N/A   Overcast
3:35 AM 51.8 °F 44.6 °F 76% 29.94 in 10.0 mi ESE 9.2 mph - N/A   Overcast
3:55 AM 51.8 °F 44.6 °F 76% 29.94 in 10.0 mi ESE 6.9 mph - N/A   Overcast
4:15 AM 51.8 °F 46.4 °F 82% 29.93 in 10.0 mi ESE 5.8 mph - N/A   Overcast
4:35 AM 51.8 °F 46.4 °F 82% 29.91 in 10.0 mi East 8.1 mph - N/A   Overcast
4:55 AM 51.8 °F 44.6 °F 76% 29.89 in 10.0 mi East 13.8 mph - N/A   Overcast
5:15 AM 50.0 °F 44.6 °F 82% 29.89 in 10.0 mi East 6.9 mph - N/A   Mostly Cloudy
5:55 AM 51.8 °F 44.6 °F 76% 29.90 in 10.0 mi East 8.1 mph - N/A   Overcast
6:15 AM 51.8 °F 44.6 °F 76% 29.91 in 10.0 mi ESE 6.9 mph - N/A   Overcast
6:35 AM 51.8 °F 44.6 °F 76% 29.90 in 10.0 mi ESE 8.1 mph - N/A   Overcast
6:55 AM 51.8 °F 44.6 °F 76% 29.90 in 10.0 mi East 6.9 mph - N/A   Overcast
7:15 AM 51.8 °F 44.6 °F 76% 29.90 in 10.0 mi East 9.2 mph - N/A   Overcast
7:35 AM 51.8 °F 44.6 °F 76% 29.89 in 7.0 mi East 9.2 mph - N/A   Overcast
7:55 AM 51.8 °F 44.6 °F 76% 29.90 in 7.0 mi East 8.1 mph - N/A   Overcast
8:15 AM 51.8 °F 44.6 °F 76% 29.90 in 10.0 mi East 8.1 mph - N/A   Overcast
8:35 AM 51.8 °F 44.6 °F 76% 29.90 in 10.0 mi East 8.1 mph - N/A   Overcast
8:55 AM 51.8 °F 44.6 °F 76% 29.91 in 10.0 mi East 8.1 mph - N/A   Overcast
9:15 AM 53.6 °F 46.4 °F 77% 29.91 in 10.0 mi East 4.6 mph - N/A   Overcast
9:35 AM 53.6 °F 46.4 °F 77% 29.91 in 10.0 mi East 5.8 mph - N/A   Overcast
9:55 AM 53.6 °F 46.4 °F 77% 29.92 in 10.0 mi SE 4.6 mph - N/A   Overcast
10:35 AM 53.6 °F 46.4 °F 77% 29.92 in 10.0 mi ESE 5.8 mph - N/A   Overcast
10:55 AM 55.4 °F 46.4 °F 72% 29.92 in 10.0 mi East 6.9 mph - N/A   Mostly Cloudy
11:15 AM 55.4 °F 46.4 °F 72% 29.93 in 10.0 mi NE 4.6 mph - N/A   Overcast
11:35 AM 55.4 °F 46.4 °F 72% 29.94 in 10.0 mi NE 3.5 mph - N/A Thunderstorm Overcast
11:55 AM 55.4 °F 48.2 °F 77% 29.92 in 7.0 mi East 3.5 mph - N/A   Drizzle
12:15 PM 55.4 °F 50.0 °F 82% 29.91 in 10.0 mi East 5.8 mph - N/A   Mostly Cloudy
12:35 PM 55.4 °F 50.0 °F 82% 29.91 in 10.0 mi East 4.6 mph - N/A   Overcast
12:55 PM 55.4 °F 50.0 °F 82% 29.90 in 5.0 mi ESE 3.5 mph - N/A   Drizzle
1:15 PM 55.4 °F 50.0 °F 82% 29.90 in 7.0 mi Calm Calm - N/A Thunderstorm Mostly Cloudy
1:35 PM 59.0 °F 51.8 °F 77% 29.87 in 10.0 mi SSE 4.6 mph - N/A   Mostly Cloudy
1:55 PM 59.0 °F 51.8 °F 77% 29.87 in 10.0 mi Calm Calm - N/A   Overcast
2:15 PM 60.8 °F 51.8 °F 72% 29.87 in 10.0 mi South 5.8 mph - N/A   Overcast
2:35 PM 60.8 °F 51.8 °F 72% 29.87 in 10.0 mi SSE 4.6 mph - N/A   Overcast
3:15 PM 60.8 °F 53.6 °F 77% 29.87 in 10.0 mi Calm Calm - N/A   Overcast
3:35 PM 60.8 °F 53.6 °F 77% 29.87 in 10.0 mi SW 3.5 mph - N/A   Overcast
3:55 PM 60.8 °F 53.6 °F 77% 29.88 in 10.0 mi Calm Calm - N/A   Overcast
4:15 PM 60.8 °F 53.6 °F 77% 29.87 in 10.0 mi NNE 3.5 mph - N/A   Overcast
4:35 PM 59.0 °F 51.8 °F 77% 29.87 in 10.0 mi NE 3.5 mph - N/A   Overcast
4:55 PM 59.0 °F 53.6 °F 82% 29.88 in 10.0 mi NNE 4.6 mph - N/A   Overcast
5:15 PM 57.2 °F 53.6 °F 88% 29.88 in 7.0 mi North 3.5 mph - N/A Rain Light Rain
5:35 PM 55.4 °F 53.6 °F 94% 29.90 in 4.0 mi North 9.2 mph 18.4 mph 0.07 in Rain Heavy Rain
5:55 PM 53.6 °F 51.8 °F 94% 29.91 in 4.0 mi North 5.8 mph - 0.13 in Rain Rain
6:15 PM 53.6 °F 51.8 °F 94% 29.95 in 10.0 mi NW 9.2 mph - 0.01 in Rain , Thunderstorm Rain
6:35 PM 53.6 °F 51.8 °F 94% 29.94 in 4.0 mi North 6.9 mph 17.3 mph 0.15 in Rain Rain
6:55 PM 53.6 °F 51.8 °F 94% 29.96 in 10.0 mi NW 5.8 mph - 0.18 in Rain Rain
7:35 PM 53.6 °F 50.0 °F 88% 29.97 in 10.0 mi North 8.1 mph - 0.01 in Rain Light Rain
7:55 PM 53.6 °F 50.0 °F 88% 29.99 in 10.0 mi NNW 10.4 mph - 0.02 in Rain Light Rain
8:15 PM 51.8 °F 50.0 °F 94% 29.99 in 10.0 mi North 4.6 mph - 0.01 in Rain Rain
8:35 PM 51.8 °F 50.0 °F 94% 30.00 in 10.0 mi NNW 5.8 mph - 0.02 in Rain Light Rain
8:55 PM 51.8 °F 50.0 °F 94% 30.01 in 10.0 mi North 4.6 mph - 0.03 in Rain Light Rain
9:15 PM 51.8 °F 50.0 °F 94% 30.02 in 10.0 mi NW 6.9 mph - N/A   Overcast
9:35 PM 51.8 °F 48.2 °F 88% 30.04 in 7.0 mi North 6.9 mph - N/A   Overcast
9:55 PM 51.8 °F 46.4 °F 82% 30.04 in 7.0 mi NNW 9.2 mph - N/A   Overcast
10:15 PM 50.0 °F 46.4 °F 87% 30.05 in 7.0 mi North 10.4 mph - N/A   Overcast
10:55 PM 50.0 °F 44.6 °F 82% 30.06 in 10.0 mi North 9.2 mph 18.4 mph N/A   Mostly Cloudy
11:15 PM 50.0 °F 42.8 °F 76% 30.06 in 10.0 mi North 6.9 mph - N/A   Scattered Clouds
11:35 PM 48.2 °F 42.8 °F 82% 30.07 in 10.0 mi North 4.6 mph - N/A   Scattered Clouds
11:55 PM 48.2 °F 42.8 °F 82% 30.08 in 10.0 mi North 6.9 mph - N/A   Clear